RH
45 39 38 39 36 33 32 33 32 31 29 28 28 28 28 28 27 26 25 25 25 25 25 25 24 24 24 24 25 26 27 27 28 29 29 30 32 32 33 34 36 41 43 43 44 45 46 48 50 51 50 49 49 47 45 45 42 38 38 39 39 40 42 45 47 45 45 47 49 48 43 37 35 36 37 35 33 36 37 35 36 37 36 36 34
44 40 35 35 36 33 30 31 33 31 28 26 27 27 27 27 27 25 24 24 23 22 23 22 22 21 21 22 23 25 26 26 26 27 28 29 30 30 31 33 35 39 41 41 42 44 45 47 48 49 49 48 46 45 46 43 38 36 37 39 42 45 47 49 48 47 50 54 55 54 50 46 42 40 38 35 37 39 37 36 37 39 39 35 32
46 43 35 32 33 32 30 30 32 31 27 26 25 25 25 25 25 25 24 23 22 21 20 19 19 19 20 21 23 25 26 27 27 28 28 29 29 29 30 32 34 36 38 39 41 43 45 47 47 48 48 46 44 46 45 39 34 35 36 38 43 47 51 54 52 53 57 57 56 56 56 52 49 47 43 39 39 39 36 35 37 37 38 36 33
49 46 38 32 32 31 29 27 29 29 27 25 23 23 23 22 22 22 21 20 20 19 18 18 18 19 20 21 23 25 27 28 27 27 27 26 27 27 29 31 32 34 35 37 39 41 44 46 47 49 48 45 45 46 41 34 32 33 35 39 44 50 57 58 53 53 56 57 57 56 56 55 53 52 48 43 42 40 34 33 34 35 34 33 32
48 46 42 35 30 29 27 25 26 27 26 23 21 21 21 20 20 20 19 19 18 17 17 17 18 19 20 21 23 24 25 25 24 24 24 24 25 25 26 28 30 31 33 35 36 38 41 46 48 49 48 46 46 44 38 32 31 32 36 42 47 53 59 57 49 48 51 53 54 55 55 55 55 55 52 47 45 44 39 33 32 32 31 30 28
48 46 44 37 30 28 26 24 24 24 23 22 21 21 20 19 19 19 19 18 17 17 17 17 17 18 19 20 20 21 21 21 21 21 22 23 24 25 25 26 27 28 30 32 34 36 39 44 47 48 47 47 47 43 37 32 32 36 40 44 48 54 57 52 44 42 45 47 47 48 50 52 53 53 53 51 47 45 44 41 37 32 30 30 28
49 46 44 42 36 30 25 22 21 22 21 22 22 21 20 19 19 19 19 18 17 17 16 17 17 18 18 18 18 18 18 19 19 21 23 24 26 27 27 26 25 26 28 30 32 35 38 42 45 45 46 50 49 44 37 32 34 40 42 44 50 54 52 47 41 39 41 43 43 44 46 49 50 49 49 49 47 46 45 46 46 40 35 34 32
50 48 45 44 40 32 23 19 18 19 20 22 22 20 19 19 19 19 19 19 18 17 16 17 17 17 17 17 17 17 17 18 20 21 22 24 26 27 28 27 25 26 27 29 32 35 38 40 42 43 47 52 50 43 36 33 36 41 43 46 50 50 46 45 43 40 41 43 42 43 46 49 51 51 51 49 48 48 46 45 46 45 44 44 41
51 49 44 42 41 35 25 19 16 17 20 21 20 20 20 19 20 20 20 19 19 18 17 17 17 17 17 17 17 16 17 19 20 21 21 22 24 26 27 27 26 26 27 28 31 35 37 39 41 43 48 52 49 43 37 33 36 40 43 46 48 46 44 46 46 43 43 45 44 43 45 47 49 51 52 52 51 50 51 49 47 45 45 47 45
51 49 44 40 37 34 28 22 17 16 17 19 19 20 20 20 20 20 20 19 19 18 17 17 18 18 18 17 17 17 18 19 20 20 20 20 21 23 25 26 26 26 26 28 31 34 35 37 40 43 47 48 46 43 38 36 38 41 43 44 45 45 45 46 47 44 43 45 44 45 46 46 47 48 49 51 51 50 52 51 50 47 47 49 48
51 50 46 40 36 36 33 26 20 17 17 18 19 20 20 20 20 20 19 19 19 18 17 17 18 18 17 16 16 17 18 19 19 19 19 19 19 20 22 24 25 25 26 27 30 33 34 36 38 42 44 43 42 42 40 38 39 41 42 43 43 44 44 45 45 44 43 43 44 45 46 46 46 47 47 48 49 51 51 49 49 47 47 50 50
47 48 47 44 40 38 36 29 22 19 18 18 18 19 20 20 19 19 20 20 19 18 17 17 17 18 17 16 16 17 17 18 18 18 18 18 19 19 20 21 23 25 27 28 30 33 34 36 39 42 42 40 40 41 40 38 39 40 41 42 43 43 43 44 44 43 43 43 44 44 45 48 47 45 46 47 48 51 51 51 51 47 44 47 47
44 45 46 46 43 40 37 33 27 23 20 17 16 18 20 19 19 20 19 19 19 19 17 17 18 18 17 17 16 17 17 18 18 18 17 17 18 19 19 19 20 23 25 27 30 32 34 37 41 42 41 39 39 39 38 36 38 40 41 42 42 42 43 43 43 43 43 44 44 44 45 48 49 47 47 48 48 49 49 50 50 47 46 47 46
42 44 45 45 43 40 38 36 32 28 23 19 17 18 18 17 17 19 19 19 19 18 18 18 18 18 18 18 18 18 18 17 18 17 17 18 18 18 18 19 19 20 22 26 29 32 33 37 41 42 40 38 38 38 37 37 39 41 41 41 42 43 43 44 44 45 45 44 44 45 46 47 49 49 50 50 51 51 51 51 49 46 47 48 48
41 43 42 42 41 40 39 38 35 33 29 25 21 19 18 16 15 17 17 18 18 18 18 18 18 19 20 21 21 21 20 19 19 19 19 18 18 19 19 19 20 20 21 23 27 31 32 36 40 42 39 37 37 38 38 39 41 41 41 42 43 44 44 45 45 45 44 44 44 45 46 47 48 49 51 52 52 53 53 53 52 49 48 49 50
40 41 40 38 38 39 39 38 37 36 33 30 27 24 21 18 17 16 16 17 18 19 19 19 19 20 22 23 24 25 25 24 23 22 21 20 20 20 20 20 22 22 21 22 26 29 31 35 39 40 37 36 36 38 40 41 42 43 42 43 44 44 45 45 45 45 45 45 45 44 45 47 49 51 53 53 52 52 54 54 54 54 52 50 52
38 38 36 36 36 37 38 38 38 38 36 35 33 30 27 23 21 19 18 19 20 21 22 21 21 21 22 24 26 26 27 27 26 25 25 24 23 22 22 22 22 23 22 22 25 28 29 33 37 37 36 35 35 38 41 41 42 43 43 44 45 44 45 45 44 45 46 46 46 46 46 48 50 53 56 56 54 52 53 54 55 55 53 51 52
36 35 35 35 34 34 35 36 37 38 37 37 37 36 33 29 27 24 22 22 23 24 25 25 24 24 24 25 26 26 27 27 27 27 28 28 26 24 24 23 23 24 24 23 24 26 28 30 34 35 35 35 34 37 41 41 41 43 44 44 45 45 46 45 43 44 46 45 45 47 48 48 49 52 57 59 58 55 54 55 55 55 54 52 51
34 35 37 38 38 36 35 35 35 36 37 38 39 40 38 35 33 31 28 27 27 26 27 27 27 27 27 27 27 27 27 28 28 28 29 29 28 27 26 25 25 26 26 24 23 25 26 28 31 34 36 35 34 36 40 40 41 43 44 44 45 45 46 45 43 43 44 45 47 47 47 48 48 49 53 57 59 58 57 56 56 55 54 53 50
33 35 36 37 38 38 38 37 36 36 36 38 40 42 41 39 36 36 36 35 34 33 31 30 29 29 29 29 29 29 29 28 28 29 29 30 30 30 29 28 28 28 28 27 25 25 25 26 30 33 35 35 34 35 39 40 40 42 43 43 44 44 45 45 43 42 43 46 48 48 48 49 48 48 50 54 57 58 58 57 57 57 55 54 52
31 32 33 34 35 36 38 39 39 39 39 39 40 42 44 43 39 36 37 39 40 40 40 37 35 34 33 32 31 31 30 30 30 30 31 31 31 31 30 30 30 30 30 29 27 26 26 27 29 33 35 35 33 35 38 40 40 41 42 42 42 43 44 45 44 43 43 46 48 49 50 51 51 51 51 54 58 59 59 59 58 58 56 55 53
29 30 31 33 33 34 37 39 41 42 42 41 42 43 45 46 42 38 37 39 41 43 44 44 43 42 40 37 34 32 31 31 31 31 32 33 32 32 32 32 32 31 30 30 29 27 27 28 30 33 35 35 33 34 38 40 39 39 41 41 41 42 44 45 44 44 45 46 47 49 52 54 56 56 54 56 58 60 60 59 59 59 58 56 55
28 30 31 32 33 33 36 39 41 41 41 41 42 44 45 46 46 42 38 37 40 43 44 45 47 48 47 45 41 37 34 32 32 32 33 34 34 33 32 32 32 32 31 30 28 27 28 28 29 32 35 35 33 34 38 40 39 39 40 41 41 42 44 44 44 44 45 46 47 48 51 55 58 58 59 60 60 60 60 60 61 62 61 59 57
25 27 28 30 32 34 35 37 39 40 41 41 41 43 45 46 47 45 39 37 39 43 45 45 47 49 50 48 46 41 37 34 34 34 34 34 34 33 32 31 31 31 31 29 28 28 28 28 28 31 34 35 34 35 38 40 40 39 39 40 40 41 42 43 43 44 45 46 47 47 49 52 56 59 63 64 62 60 60 60 62 63 63 63 60
20 22 25 28 31 33 34 35 37 39 41 41 41 42 44 45 46 44 40 39 42 44 45 45 47 49 49 47 45 42 39 36 36 36 36 35 34 33 31 30 29 29 28 28 28 27 27 27 27 29 33 35 35 35 37 39 40 39 39 40 40 40 41 42 43 45 46 46 46 46 47 50 55 59 61 64 64 61 59 60 63 63 63 64 64
16 17 22 26 28 30 32 33 34 37 39 41 41 42 43 44 43 42 42 42 44 46 47 46 46 48 47 44 43 41 39 39 39 38 38 36 35 33 31 29 27 27 26 25 25 25 25 26 27 28 31 34 35 35 36 38 39 39 38 39 40 41 41 41 42 44 45 46 45 44 45 49 55 58 59 61 64 63 62 62 63 63 63 64 64
12 15 19 23 26 28 29 31 31 32 35 38 40 41 42 43 42 42 44 44 45 45 46 45 45 46 45 42 41 39 39 40 41 40 39 37 35 35 33 31 29 27 26 25 24 24 24 25 26 28 29 32 34 35 35 36 38 38 38 39 40 41 42 42 43 43 45 46 45 44 46 50 55 57 56 57 60 62 63 64 63 64 65 65 64
9 11 15 18 21 24 27 30 31 31 32 34 37 39 40 41 42 43 43 43 43 44 44 43 43 44 44 41 40 39 39 41 42 42 40 38 37 36 36 35 33 31 29 27 26 26 26 27 27 27 28 29 32 34 34 35 37 37 38 38 40 41 42 43 44 44 44 44 45 46 48 50 54 57 57 56 56 55 56 58 60 62 65 65 63
9 9 11 14 16 19 24 29 31 32 32 33 34 37 38 39 40 41 41 41 41 41 40 41 41 41 41 41 41 40 41 43 43 42 41 40 39 37 37 38 38 36 34 31 29 28 28 30 30 28 28 28 29 32 34 35 36 36 37 39 40 41 42 44 45 44 43 43 44 47 48 49 53 56 56 55 53 50 49 51 54 57 61 62 61
9 9 10 13 16 17 21 26 29 30 33 33 32 33 35 37 38 38 38 39 39 39 39 40 39 38 39 41 42 42 42 44 44 42 42 43 42 40 39 40 40 39 37 35 32 29 28 30 30 29 28 26 26 29 33 35 35 35 37 38 40 41 42 44 45 45 44 43 44 47 48 48 53 54 53 54 55 52 50 50 50 53 57 56 56
9 9 10 13 16 18 19 24 28 29 31 33 33 32 34 35 37 38 37 38 38 38 38 39 38 38 40 41 42 42 43 43 43 42 42 44 44 43 42 41 41 41 40 37 34 31 28 28 29 29 27 25 24 27 32 35 36 36 37 38 40 41 42 44 46 46 45 43 44 46 47 49 52 52 51 55 57 54 51 52 51 53 55 55 54
9 9 9 11 14 16 18 21 25 28 29 31 33 34 35 35 36 37 37 37 37 38 39 39 39 40 41 41 42 43 43 42 42 42 42 43 45 45 44 43 43 42 42 39 36 33 30 29 29 28 26 24 24 25 30 35 36 37 37 38 40 41 43 45 46 46 45 44 44 45 47 48 51 52 52 57 58 54 53 54 53 53 54 54 54
10 9 9 9 10 13 17 19 21 25 27 28 30 32 34 35 35 36 38 39 39 39 40 41 41 41 42 42 43 43 42 42 41 41 42 43 44 44 44 44 44 43 43 42 39 35 32 30 29 28 26 24 24 25 29 33 36 37 37 38 39 41 43 46 47 46 45 44 44 45 46 47 50 53 57 60 59 55 54 55 54 53 54 54 53
10 10 9 9 9 11 14 16 19 23 26 27 29 30 33 35 35 36 38 40 42 42 42 43 44 43 43 44 43 42 41 41 41 41 42 43 42 43 43 45 46 45 44 44 41 38 34 32 30 29 27 25 25 25 29 32 35 36 37 38 40 42 43 45 47 47 45 44 45 45 46 47 51 56 61 64 61 57 55 55 54 54 56 55 54
11 10 10 9 9 10 12 13 18 22 24 27 29 29 31 34 35 35 36 38 41 43 44 45 46 45 46 46 44 43 42 42 42 42 41 42 42 43 43 44 46 46 45 45 44 40 36 34 32 30 28 28 27 27 28 32 34 36 38 40 41 42 42 44 46 47 46 45 45 45 46 48 52 57 61 64 63 60 58 57 57 57 56 55 56
11 11 10 10 9 10 11 13 16 19 21 25 29 28 29 31 31 32 34 35 37 40 42 44 45 45 46 46 45 45 44 44 44 44 43 43 43 43 43 44 44 45 46 48 47 43 39 36 34 32 31 30 30 28 27 30 33 36 38 42 44 44 43 43 45 46 47 47 45 45 47 49 51 54 59 62 63 63 61 58 59 59 55 54 56
12 11 10 10 10 11 12 15 16 16 17 22 27 28 28 29 29 30 33 34 34 36 38 40 41 41 42 43 44 44 45 46 47 47 46 45 45 45 46 45 45 45 46 48 49 47 45 42 38 35 33 33 33 30 28 30 33 35 39 42 45 46 45 44 45 46 47 46 45 46 48 49 51 55 58 61 64 65 62 58 59 59 57 56 57
13 12 11 11 12 12 14 16 16 16 17 19 22 25 27 29 30 32 33 34 35 36 36 36 36 36 37 39 42 43 45 47 48 48 47 47 47 47 47 47 47 46 46 48 50 51 52 50 44 39 36 35 34 32 31 33 34 36 39 42 45 48 47 46 46 46 47 47 46 48 49 50 54 59 61 64 67 67 62 58 58 59 58 59 58
17 15 13 13 14 13 14 16 17 17 18 18 19 22 24 26 29 31 33 34 35 36 36 35 35 35 36 39 41 43 44 45 46 46 46 46 47 48 49 49 49 48 48 50 52 54 56 53 50 47 43 38 36 35 34 35 37 38 39 42 45 47 47 47 47 47 48 47 47 49 50 51 57 62 64 66 68 68 64 58 56 58 59 59 57
20 17 16 14 14 14 15 16 17 17 18 20 20 22 24 26 28 29 31 33 34 35 36 36 37 37 38 40 42 43 44 44 44 43 44 46 47 48 49 49 48 48 49 52 54 55 54 52 52 54 51 43 39 38 37 37 38 39 40 42 45 47 47 47 48 48 48 47 47 48 50 53 59 64 66 68 69 68 65 60 56 57 60 61 58
22 20 18 17 15 16 17 18 18 18 18 19 21 22 24 26 28 28 29 31 32 33 34 36 37 38 40 43 44 44 44 44 42 42 43 45 46 47 48 48 48 49 49 52 55 55 55 54 54 56 55 50 44 41 39 39 39 39 40 43 44 45 46 47 47 47 47 46 46 47 51 57 62 65 67 70 69 66 64 61 58 58 62 64 58
27 24 22 20 17 17 17 18 19 19 19 20 21 23 24 25 26 27 28 28 28 29 32 34 36 37 39 43 45 45 44 44 44 44 44 45 47 48 48 48 48 47 47 50 52 53 56 58 57 56 56 55 50 45 42 41 40 40 41 43 43 43 44 45 45 45 45 45 44 47 53 59 64 66 68 70 68 64 63 61 57 58 64 64 57
32 30 26 23 19 17 17 18 18 19 20 21 22 23 24 25 26 28 28 28 28 29 30 32 34 36 38 40 42 42 42 43 45 44 44 45 47 48 48 47 47 47 47 49 50 51 56 60 59 58 57 55 55 53 49 48 48 45 44 44 43 42 43 43 43 42 43 44 45 49 55 61 65 68 70 70 69 67 64 60 57 59 64 64 59
33 32 29 26 22 20 19 19 20 20 20 22 22 23 23 24 25 27 29 30 30 31 31 32 33 35 36 37 37 37 39 41 42 43 44 45 46 47 46 46 46 45 46 49 51 55 59 59 58 59 58 57 58 57 54 55 57 56 53 50 46 45 45 45 43 41 42 45 49 54 59 64 67 69 71 72 73 70 65 60 57 58 64 66 64
33 32 30 28 26 24 23 23 23 23 23 24 24 24 24 24 24 25 27 28 29 31 33 35 35 36 37 38 38 38 39 40 41 41 43 44 46 46 45 43 43 43 44 48 54 59 61 60 58 58 57 59 61 61 58 60 63 63 64 62 57 55 53 50 46 44 46 50 55 60 65 68 69 70 71 73 75 71 65 60 58 59 64 68 65
35 33 32 30 29 28 27 27 27 28 28 29 29 28 27 26 26 26 26 26 27 28 30 34 37 39 39 40 41 41 41 41 41 41 42 44 45 46 44 42 41 41 43 48 52 55 57 58 60 61 61 62 63 61 59 60 64 67 69 69 69 69 67 63 57 54 55 58 62 66 70 71 73 74 73 73 75 72 66 62 61 62 68 70 62
38 37 36 34 32 30 29 28 29 30 31 32 33 33 32 32 31 30 30 29 30 30 30 33 36 39 40 41 42 43 44 45 45 45 46 47 47 47 46 44 42 43 47 50 52 53 54 55 57 60 63 66 65 62 58 58 61 64 65 66 70 73 75 74 70 66 65 68 71 74 76 75 75 77 76 76 77 75 69 66 65 69 73 70 59
42 41 40 38 35 33 32 30 29 30 30 31 32 33 33 33 33 32 32 32 33 33 33 33 35 36 38 40 41 42 44 44 43 44 45 46 46 46 46 45 44 45 47 49 49 50 50 50 51 54 59 63 63 60 56 55 58 62 64 69 74 75 74 75 75 73 73 77 80 80 79 76 76 77 78 80 80 78 74 72 72 74 75 67 57
46 45 44 43 39 36 34 33 32 32 31 30 30 30 31 31 30 29 30 30 31 33 34 35 36 36 37 38 38 39 39 39 39 40 40 41 43 43 45 46 47 47 48 48 48 48 47 47 49 50 52 53 53 50 50 53 57 60 64 70 72 70 68 72 78 81 80 81 84 84 81 78 76 76 79 83 85 83 81 79 77 77 74 65 57
48 47 46 46 43 39 36 34 33 32 31 30 30 30 29 29 28 27 27 28 29 30 32 34 35 36 37 37 38 38 38 38 38 38 38 38 39 40 41 44 46 49 50 51 50 50 49 50 52 51 49 49 49 49 51 56 59 60 63 67 68 65 63 64 71 79 83 84 85 85 82 79 77 77 81 86 89 88 86 81 78 75 70 63 58
48 48 47 48 47 44 41 39 37 35 33 32 32 32 31 31 30 29 30 30 29 30 30 31 32 32 33 34 35 36 37 38 38 38 38 37 37 37 38 39 41 43 45 46 47 48 48 50 51 51 50 51 53 54 56 58 61 62 67 72 74 72 70 67 66 71 78 81 80 78 78 77 76 76 80 84 88 90 88 82 79 75 68 62 57